Temperature
13 13 13 14 17 18 19 21 21 21 21 22 22 22 23 25 25 24 21 21 20 20 19 18 17 17 17 16 16 16 16 16 16 16 16 15 15 15 15 15 15 14 14 14 14 14 13 13 13
12 13 13 15 17 18 20 21 21 21 22 20 20 21 22 23 22 21 20 20 19 19 18 17 17 16 16 16 16 16 16 16 16 15 15 15 15 15 15 14 14 14 14 14 13 13 13 13 13
12 12 14 16 17 19 21 21 21 21 20 20 21 21 22 22 21 20 20 20 19 18 17 16 16 16 16 16 15 15 15 15 15 15 15 15 14 14 14 14 14 13 13 13 13 13 13 13 13
11 12 14 16 17 19 21 21 20 20 20 19 20 21 20 19 19 19 19 19 18 17 16 16 16 16 16 15 15 15 15 15 15 15 15 14 14 14 14 13 13 13 13 13 13 13 13 13 13
11 13 15 15 17 20 21 20 19 20 21 20 20 21 21 19 18 19 19 18 17 16 16 15 16 15 15 15 15 15 15 15 15 14 14 14 13 13 13 13 13 13 13 12 13 12 13 13 12
12 13 14 16 18 19 20 19 19 20 20 20 19 20 20 18 18 18 18 17 16 16 15 15 15 15 15 15 15 15 14 14 14 14 14 13 13 13 13 13 13 13 12 12 12 12 12 12 12
12 13 14 16 18 19 19 19 18 19 20 20 19 20 20 18 17 17 17 16 15 15 15 15 15 15 15 15 14 15 14 14 14 14 13 13 13 13 12 12 12 12 12 12 12 12 12 12 12
11 13 14 15 16 17 19 18 17 18 19 19 18 19 19 17 16 16 15 15 15 14 14 14 14 14 14 14 14 14 14 14 13 13 13 13 12 12 12 12 12 12 12 12 12 11 12 12 12
10 11 13 15 16 17 17 17 17 16 17 17 17 18 17 16 16 15 15 15 14 14 14 14 14 14 14 14 14 14 13 13 13 13 12 12 12 12 12 12 12 11 11 11 11 11 11 11 11
10 11 13 15 15 16 16 16 16 16 17 17 16 16 16 15 15 15 14 14 14 14 14 14 14 14 14 14 13 13 13 13 12 12 12 12 12 11 11 11 11 11 11 11 11 11 11 11 11
10 11 13 13 14 14 14 14 14 15 16 16 16 16 15 14 14 14 14 14 14 14 14 14 14 14 14 14 13 13 12 12 12 12 12 12 12 11 11 11 11 11 11 11 11 11 11 10 10
10 11 12 12 12 12 12 13 13 14 15 15 15 15 14 14 14 14 14 14 14 14 13 13 14 14 14 13 13 13 12 12 12 12 12 12 12 11 11 11 11 10 10 11 10 10 10 10 10
9 10 10 11 11 11 12 12 12 13 14 14 14 13 14 14 14 14 14 13 13 13 13 13 13 13 13 13 13 13 12 12 12 12 12 12 12 11 11 11 11 10 10 10 10 10 10 10 10
9 9 9 10 10 11 12 12 12 13 13 13 13 13 13 13 13 13 13 13 13 13 13 13 13 13 13 13 13 13 12 12 12 12 12 11 11 11 11 11 11 10 10 10 10 10 10 10 10
8 8 9 10 10 11 11 11 13 13 12 13 13 13 13 13 13 13 13 13 13 13 13 13 13 13 13 13 13 13 12 12 12 12 12 11 11 11 11 11 11 10 10 10 10 10 10 10 10
8 8 9 11 11 11 10 11 13 12 12 12 13 13 13 13 13 13 13 12 12 13 13 13 13 13 13 13 13 13 12 12 12 12 11 11 11 11 11 11 11 10 10 10 10 10 10 9 9
8 8 9 10 11 11 10 10 12 12 12 12 13 13 13 13 13 12 12 12 12 12 12 13 13 13 13 12 12 12 12 12 12 12 11 11 11 11 11 10 10 10 10 10 10 10 9 9 9
8 8 9 9 10 10 10 11 12 12 11 12 12 13 13 13 13 12 12 12 12 12 12 12 12 12 12 12 12 12 12 12 12 12 11 11 11 11 10 10 10 10 10 10 10 9 9 9 9
7 7 8 9 10 9 10 11 12 12 12 12 12 12 13 13 13 12 12 12 12 12 12 12 12 12 12 12 12 12 12 12 12 12 12 11 11 11 10 10 10 10 10 10 9 9 9 9 9
7 7 8 9 10 9 10 10 12 12 12 12 12 12 13 13 12 12 12 12 12 12 12 12 12 12 12 12 12 12 12 12 12 12 12 11 11 11 10 10 10 10 10 10 9 9 9 9 9
7 8 8 8 9 10 9 10 12 12 12 12 11 12 12 12 12 12 12 12 12 12 12 12 12 12 12 12 12 11 11 11 11 11 12 12 11 11 11 10 10 10 10 10 10 9 9 9 9
7 8 8 8 8 8 9 9 12 12 12 12 12 12 12 12 12 11 11 12 12 12 12 12 12 12 12 12 11 11 11 11 12 12 12 12 11 11 11 11 10 10 10 10 10 9 9 9 9
7 8 8 8 8 8 9 9 11 12 12 12 12 12 12 11 11 11 11 12 12 12 12 12 12 12 12 12 11 11 11 11 11 11 11 12 11 11 11 11 10 10 10 10 10 10 9 9 9
7 8 8 8 8 7 9 9 11 11 11 12 12 12 11 11 11 11 11 11 11 11 12 12 11 11 11 11 11 11 11 11 11 11 11 11 12 12 11 11 11 10 10 10 10 10 9 9 9
7 7 7 7 8 9 10 9 10 11 11 11 11 11 11 10 10 10 10 11 11 11 11 11 11 11 11 11 11 12 12 12 12 12 12 12 12 12 12 12 11 11 11 11 10 10 10 9 9
7 7 6 7 8 9 9 9 11 11 11 11 11 10 10 10 9 9 9 10 10 10 11 11 11 11 11 11 11 12 12 12 12 12 12 12 13 13 13 12 12 11 11 11 10 10 10 9 9
6 7 7 6 7 7 9 10 10 10 10 10 10 10 10 9 9 9 9 9 10 10 10 11 11 11 11 11 12 12 12 12 12 12 13 13 13 13 13 12 12 12 11 11 10 10 10 10 9
7 6 6 6 6 8 9 10 10 9 9 10 10 10 9 9 9 9 9 9 9 9 10 10 10 11 11 11 11 12 12 13 13 12 13 13 13 13 13 12 12 12 11 11 11 10 10 10 10
6 6 6 6 6 7 8 10 9 9 9 9 9 9 9 8 8 8 8 8 9 9 9 10 10 10 11 11 11 11 12 12 12 12 13 13 13 13 13 12 12 12 11 11 11 11 10 10 10
5 5 5 5 5 6 7 9 10 9 9 9 9 8 8 8 7 7 8 8 8 9 9 9 10 10 10 11 11 11 12 12 12 12 13 13 13 13 13 12 12 12 11 11 11 10 10 10 10
Wind_Speed
5 5 4 4 6 10 19 16 13 10 8 8 8 8 9 12 9 3 3 7 10 15 21 26 25 25 24 23 23 22 22 21 21 21 20 20 19 18 18 18 18 18 18 18 18 18 17 17 17
3 5 5 6 10 17 18 18 19 16 9 5 8 10 10 11 8 3 2 7 11 15 20 24 25 25 25 24 23 23 22 22 21 21 20 20 19 19 18 18 18 18 18 18 17 18 17 17 16
4 7 7 7 15 22 18 10 14 14 11 8 7 8 9 7 5 3 1 8 11 15 19 22 26 25 25 24 23 23 22 22 22 21 20 20 19 19 19 19 19 19 18 17 17 17 17 16 15
4 6 7 14 27 26 22 12 6 9 10 10 9 7 6 4 2 1 2 8 12 15 18 22 25 25 25 24 24 23 23 22 22 21 20 20 19 19 19 19 19 18 18 17 17 17 16 16 15
5 6 12 21 31 26 20 16 11 12 12 10 11 11 9 4 2 1 4 9 12 15 17 22 25 25 25 24 24 23 23 22 21 21 21 20 19 19 19 19 18 18 17 17 17 16 16 15 15
6 7 14 25 29 24 21 18 16 17 16 12 12 14 12 5 3 2 5 9 11 14 16 20 24 24 25 24 24 24 23 22 22 21 21 20 20 20 19 19 18 18 17 17 16 16 15 15 14
9 11 21 26 25 24 19 16 18 18 19 16 11 13 11 7 3 3 6 8 10 13 15 17 22 24 24 24 24 23 23 22 22 21 21 20 20 20 19 19 17 17 17 16 16 15 15 14 14
7 8 19 23 24 24 17 15 17 19 20 14 12 12 11 6 2 4 6 8 10 12 14 16 19 21 22 23 23 23 22 22 22 21 20 20 20 19 19 18 17 17 16 16 15 15 14 14 13
6 11 20 21 20 19 14 15 15 15 17 15 14 14 10 4 5 6 7 8 10 12 14 15 17 19 20 20 22 23 22 21 22 20 20 20 18 18 17 17 17 17 16 15 15 14 14 13 13
9 15 22 18 17 17 16 16 16 15 18 17 16 13 8 8 10 11 12 13 14 15 15 15 17 17 18 17 19 19 19 20 20 19 20 17 15 14 15 17 16 16 16 15 14 14 13 10 10
9 16 18 18 17 16 17 18 17 19 21 20 18 14 11 11 12 13 14 15 15 16 15 15 16 17 17 14 15 13 14 16 17 19 18 15 14 13 13 13 14 15 15 13 13 12 9 8 7
11 17 17 18 17 16 16 17 19 21 22 18 16 14 13 15 16 16 16 16 15 15 16 15 15 15 16 15 14 13 12 12 12 16 18 15 11 11 11 10 12 12 11 10 10 8 9 8 8
14 15 16 17 18 18 17 19 20 22 20 17 15 14 16 17 18 17 16 15 15 16 16 16 15 16 15 15 13 13 13 13 14 14 16 16 11 11 11 10 10 11 10 10 9 8 9 8 7
10 14 17 17 18 17 18 20 20 20 17 16 16 16 16 17 18 18 17 17 17 17 17 16 16 17 15 14 14 13 13 13 14 14 16 17 13 12 11 10 9 10 10 10 9 9 8 7 6
11 14 16 15 15 13 12 18 20 17 14 16 17 17 17 18 17 19 19 18 18 17 17 17 17 17 17 15 15 13 13 14 13 13 17 17 15 14 12 10 10 10 11 11 9 9 7 6 5
9 9 10 10 11 11 11 19 17 13 15 17 17 17 17 18 19 18 19 18 18 17 18 18 16 17 17 15 14 13 14 14 13 14 15 17 16 16 13 10 10 11 11 9 8 8 7 6 5
6 9 13 13 9 10 12 18 17 14 15 18 17 17 17 17 18 18 18 18 18 18 18 18 18 18 17 16 14 13 14 15 14 14 14 16 17 17 13 11 10 12 10 9 8 8 7 7 5
9 12 14 14 11 12 16 20 19 16 16 17 17 16 16 17 18 17 17 17 17 17 17 18 18 19 17 14 12 11 13 14 14 14 15 17 16 17 14 11 12 13 10 9 9 9 7 6 5
12 14 17 16 14 13 17 20 20 17 16 16 16 16 16 16 15 14 15 16 16 16 17 18 18 18 16 14 14 13 14 14 13 14 17 18 17 18 15 11 13 12 11 11 11 9 9 7 5
12 14 16 14 11 12 16 20 19 15 15 15 15 14 14 14 12 12 13 14 15 17 18 18 19 19 18 15 14 13 13 13 14 13 16 18 18 18 15 15 13 13 11 12 12 10 8 6 6
12 13 13 14 16 12 13 15 14 10 10 10 11 12 12 11 12 12 12 14 15 16 18 16 18 19 19 18 13 12 11 11 12 14 14 17 19 19 17 17 15 14 13 12 13 13 11 8 8
12 10 11 13 12 8 8 9 11 8 8 8 10 10 10 9 10 11 12 13 14 15 15 16 17 17 18 18 16 17 16 15 15 15 14 16 18 19 19 18 17 15 13 13 13 13 11 10 8
9 12 12 13 11 10 10 8 8 6 7 7 8 8 9 9 9 10 11 12 13 13 13 14 16 17 18 19 19 19 17 16 13 15 17 17 17 18 19 18 17 16 14 14 14 14 13 11 10
10 10 10 8 6 6 7 7 6 4 6 7 6 6 7 7 7 8 8 9 10 10 11 12 15 17 18 19 20 21 21 19 18 19 18 16 14 15 19 18 17 17 15 15 14 14 14 12 11
7 7 4 3 3 5 4 6 6 6 6 7 6 6 5 5 5 6 7 8 9 10 12 12 15 17 18 19 20 21 22 22 21 20 19 17 15 15 19 18 18 16 16 15 15 14 14 14 13
7 5 4 5 5 8 6 6 4 6 6 6 6 6 6 5 5 6 6 7 8 9 11 13 14 16 17 19 20 20 22 18 17 20 18 18 16 16 19 20 19 18 17 16 15 13 13 12 12
5 4 5 5 7 7 6 5 5 6 6 6 6 6 6 6 6 6 6 6 7 8 10 13 15 15 16 17 19 19 21 21 20 20 19 17 16 15 19 20 19 18 18 17 16 13 14 13 12
5 6 4 3 4 6 8 7 4 5 6 8 9 9 9 8 8 7 7 6 6 7 8 10 14 15 15 16 17 16 19 21 20 19 20 19 19 18 19 20 19 19 18 17 16 13 14 14 12
5 3 4 4 5 5 7 5 2 5 7 9 10 10 10 10 9 8 7 7 6 6 6 8 11 13 14 15 16 17 18 19 19 18 19 19 19 19 19 19 19 19 18 17 16 15 15 15 13
5 5 4 4 5 6 7 7 2 5 8 10 11 11 11 10 9 8 8 7 6 6 6 6 9 11 13 14 15 16 17 17 18 19 19 19 19 19 19 19 18 18 18 18 17 17 16 16 15
Wind_Direction
254 210 197 201 219 231 239 233 228 227 224 224 216 216 226 225 219 230 72 160 162 164 166 167 167 164 161 160 158 154 152 150 148 146 143 141 138 135 133 130 127 123 119 116 114 110 108 104 100
242 190 193 210 230 234 240 235 230 229 225 211 215 227 234 238 244 286 115 158 165 166 168 169 166 164 162 160 158 155 153 152 149 147 144 142 139 136 134 132 127 124 120 117 115 112 108 105 102
233 206 206 215 229 233 237 229 237 232 230 225 221 229 236 238 232 235 117 164 168 169 171 167 165 165 163 161 159 156 155 153 150 148 146 143 141 138 136 132 128 125 122 120 117 114 111 108 105
206 198 221 231 234 233 241 240 230 227 224 228 234 235 227 244 269 295 157 175 174 173 172 167 167 166 164 162 160 158 156 154 152 150 148 145 143 139 135 131 129 127 125 123 120 117 115 112 108
216 213 223 234 240 241 241 246 244 239 234 229 233 244 242 233 266 255 185 181 179 175 173 169 168 167 165 163 161 159 157 156 155 153 150 148 144 139 136 134 132 132 130 127 124 121 117 116 111
211 216 229 238 242 242 242 242 245 246 244 242 245 249 250 244 245 217 188 186 181 176 173 170 169 168 166 164 162 159 159 158 157 155 152 149 146 142 139 137 136 136 134 131 128 125 121 118 114
226 225 237 245 249 247 243 240 241 245 246 243 246 253 251 237 224 191 184 183 179 177 176 173 172 171 167 164 162 161 160 159 157 155 152 149 147 146 144 141 140 139 135 133 131 128 124 120 116
237 242 245 244 249 251 249 245 245 249 253 255 246 247 250 244 180 176 178 180 180 180 181 178 175 173 171 167 162 160 160 160 157 153 149 147 146 147 146 144 141 139 137 136 133 130 126 122 118
228 238 242 242 248 254 254 253 251 259 259 254 248 254 267 231 192 188 187 187 185 186 187 184 180 176 172 169 165 162 160 159 155 152 148 150 153 150 149 144 142 142 141 138 134 130 127 125 120
217 239 246 251 260 266 265 262 262 258 254 252 250 250 243 215 210 206 202 197 193 191 190 188 184 179 173 168 167 169 168 164 164 162 160 161 156 151 146 140 142 142 140 138 135 131 133 140 134
232 246 257 261 267 272 268 264 262 258 254 252 251 247 232 220 220 219 213 207 201 196 191 191 187 181 176 170 169 170 169 168 168 166 165 160 153 150 148 150 148 148 148 145 141 146 146 144 137
252 259 263 266 266 268 269 269 264 256 260 265 261 251 235 227 226 224 221 214 207 202 198 193 188 185 180 174 172 171 169 169 168 168 166 162 159 160 160 160 160 158 158 152 155 152 149 145 146
256 265 267 271 268 265 266 265 267 262 264 267 259 248 240 233 231 229 225 220 213 208 203 197 190 188 183 177 175 174 172 170 169 167 170 168 165 166 165 163 161 162 160 160 160 159 155 153 151
266 274 276 276 269 265 265 268 266 262 262 260 254 248 245 240 233 229 226 223 218 212 207 200 195 190 185 182 178 175 173 171 171 171 174 173 170 170 169 165 164 165 165 164 166 163 160 157 158
269 275 276 266 262 258 266 266 255 261 268 261 257 252 248 243 238 232 227 223 220 215 209 204 199 192 188 185 182 176 174 173 174 174 177 177 175 173 172 169 169 169 168 168 168 163 166 162 164
271 266 269 270 268 262 248 260 264 268 271 266 259 253 249 246 239 237 230 225 221 216 210 205 200 194 190 187 183 180 176 175 177 176 178 180 178 177 175 174 174 171 171 172 170 170 172 172 176
254 270 279 288 270 268 250 264 277 272 268 268 260 253 250 248 242 237 231 224 220 216 210 205 200 195 190 186 184 184 179 178 179 178 180 182 181 181 180 179 176 174 175 177 175 179 180 178 178
292 290 286 285 284 280 267 268 274 275 269 267 265 257 250 247 241 235 230 224 219 215 211 206 201 196 189 185 184 185 182 181 182 182 183 183 184 185 184 182 181 179 179 180 181 180 183 185 179
284 282 286 289 291 284 275 276 275 273 269 264 261 257 248 247 242 232 227 222 216 213 210 205 200 195 189 186 186 186 187 183 184 185 185 186 186 187 187 185 185 185 187 187 186 182 181 184 180
278 281 288 294 292 290 283 281 278 268 264 262 258 257 252 246 237 226 221 218 213 211 209 205 201 197 194 192 190 191 189 188 186 185 187 189 189 190 190 190 189 189 190 190 188 185 187 182 189
284 279 288 295 301 289 286 283 273 268 259 259 259 258 257 250 235 225 220 216 213 210 207 204 201 199 197 192 188 187 189 188 187 188 188 191 192 193 193 194 193 192 193 193 192 191 193 189 191
295 292 290 290 292 292 284 288 281 273 265 258 254 253 253 255 243 230 224 219 214 212 207 204 201 199 197 193 192 191 194 194 194 189 188 190 194 195 196 196 197 195 196 196 196 197 198 195 192
296 302 291 285 283 284 269 265 279 279 274 265 258 258 258 255 246 234 229 224 219 213 208 204 201 200 198 197 196 198 203 200 193 188 188 190 193 196 197 198 198 198 198 199 197 196 199 199 200
297 300 289 271 268 266 268 258 284 295 285 283 273 270 272 270 261 252 243 235 228 219 211 207 204 204 200 200 200 202 204 199 193 189 188 190 192 195 198 199 199 199 199 199 197 196 199 201 203
312 318 313 292 265 278 294 265 275 315 308 294 295 296 297 296 290 275 259 242 233 223 213 208 209 208 203 202 204 206 206 201 199 195 191 190 191 195 197 196 200 200 200 197 196 196 199 202 203
306 298 301 303 298 306 294 264 288 323 322 316 313 312 317 321 319 305 287 263 244 229 219 211 212 212 206 204 206 209 206 203 203 201 195 194 195 196 195 196 198 199 197 195 195 197 199 201 203
302 293 291 287 286 282 275 277 291 337 351 358 353 345 347 340 335 326 313 287 261 243 228 217 215 217 210 208 208 210 207 204 203 202 199 198 197 194 193 194 196 198 196 194 193 197 198 199 203
281 300 292 275 290 285 288 283 297 342 348 351 351 349 345 339 334 332 325 309 284 258 243 230 221 220 215 212 211 210 208 206 204 202 200 198 196 192 192 193 194 195 195 194 194 197 198 198 201
297 284 290 281 278 285 291 296 341 332 331 334 337 337 335 336 332 328 325 314 298 273 253 239 228 224 218 215 215 210 209 208 204 204 202 199 196 193 193 192 192 192 194 194 195 197 195 198 199
266 274 284 288 285 276 280 282 324 323 328 327 327 330 329 331 329 328 327 321 307 290 269 252 236 227 220 217 218 213 209 207 206 206 203 199 196 194 192 190 190 191 193 194 195 197 196 197 199
Height
1507 1510 1512 1515 1513 1504 1489 1479 1480 1482 1482 1482 1483 1483 1480 1478 1479 1481 1478 1477 1477 1479 1481 1484 1487 1491 1494 1498 1501 1504 1507 1510 1512 1514 1516 1518 1519 1521 1522 1524 1525 1526 1527 1528 1529 1529 1530 1530 1531
1506 1509 1512 1511 1503 1493 1479 1475 1477 1478 1479 1482 1482 1482 1480 1477 1478 1477 1475 1475 1477 1479 1481 1483 1487 1490 1494 1497 1501 1504 1506 1509 1512 1514 1516 1518 1519 1521 1523 1524 1525 1526 1527 1528 1529 1530 1531 1531 1531
1504 1507 1509 1503 1492 1478 1469 1470 1473 1476 1479 1481 1480 1479 1478 1476 1477 1476 1474 1475 1476 1479 1481 1483 1486 1490 1493 1497 1500 1503 1506 1509 1511 1514 1516 1518 1519 1521 1523 1524 1525 1526 1528 1529 1530 1530 1531 1532 1532
1503 1505 1504 1495 1476 1467 1467 1469 1474 1475 1477 1478 1478 1476 1476 1476 1475 1474 1473 1474 1476 1478 1480 1483 1486 1489 1493 1496 1499 1502 1505 1508 1511 1513 1515 1517 1519 1521 1522 1524 1525 1527 1528 1529 1530 1531 1532 1533 1533
1501 1500 1495 1483 1469 1465 1467 1471 1474 1473 1473 1475 1476 1472 1472 1473 1472 1472 1472 1473 1475 1477 1480 1482 1485 1489 1492 1496 1499 1502 1505 1508 1510 1513 1515 1517 1519 1521 1522 1524 1525 1527 1528 1530 1531 1532 1533 1534 1534
1498 1494 1486 1470 1462 1463 1466 1471 1473 1472 1470 1472 1473 1470 1469 1471 1470 1470 1471 1472 1474 1476 1479 1482 1485 1488 1492 1495 1498 1501 1504 1507 1510 1512 1515 1517 1519 1521 1522 1524 1526 1527 1529 1530 1531 1533 1533 1534 1535
1494 1488 1474 1464 1460 1460 1463 1468 1470 1468 1467 1468 1470 1467 1467 1468 1468 1468 1469 1471 1473 1475 1478 1481 1484 1488 1491 1494 1497 1500 1503 1506 1509 1512 1514 1516 1519 1520 1522 1524 1526 1528 1529 1531 1532 1533 1534 1535 1536
1490 1486 1472 1464 1461 1458 1462 1466 1467 1467 1465 1467 1468 1464 1464 1466 1465 1466 1468 1470 1472 1474 1477 1480 1483 1486 1490 1493 1496 1499 1502 1505 1508 1511 1514 1516 1518 1520 1522 1524 1526 1528 1529 1531 1532 1534 1535 1536 1537
1488 1485 1467 1461 1461 1459 1462 1464 1465 1466 1464 1464 1464 1463 1463 1463 1463 1465 1466 1468 1470 1472 1475 1478 1481 1484 1488 1491 1494 1498 1501 1505 1508 1510 1513 1516 1518 1520 1522 1524 1526 1528 1530 1531 1533 1534 1535 1536 1537
1483 1474 1463 1462 1462 1461 1462 1463 1463 1463 1460 1460 1460 1460 1461 1461 1462 1462 1463 1465 1467 1469 1472 1475 1478 1482 1485 1489 1492 1496 1500 1503 1506 1509 1512 1515 1518 1520 1522 1524 1526 1528 1530 1531 1533 1534 1536 1537 1538
1476 1468 1464 1464 1464 1463 1462 1461 1461 1459 1455 1456 1456 1457 1457 1458 1459 1459 1460 1461 1464 1466 1469 1472 1475 1479 1482 1485 1489 1493 1497 1501 1504 1508 1510 1513 1516 1518 1521 1523 1526 1528 1530 1532 1533 1535 1536 1538 1538
1473 1467 1466 1464 1464 1463 1461 1459 1458 1455 1452 1453 1453 1453 1453 1453 1454 1455 1457 1458 1461 1463 1466 1469 1472 1475 1479 1483 1486 1490 1494 1497 1501 1505 1508 1511 1514 1516 1519 1522 1524 1527 1529 1531 1533 1535 1536 1537 1538
1470 1466 1464 1462 1461 1459 1458 1455 1453 1450 1450 1449 1448 1448 1448 1449 1450 1452 1454 1455 1457 1459 1462 1465 1468 1471 1475 1479 1483 1487 1491 1495 1499 1502 1506 1509 1512 1515 1518 1520 1523 1526 1528 1530 1532 1534 1536 1537 1538
1467 1465 1462 1460 1457 1455 1453 1449 1448 1443 1445 1445 1444 1443 1444 1444 1445 1447 1449 1450 1452 1455 1458 1461 1464 1468 1472 1475 1479 1483 1488 1492 1496 1499 1503 1507 1510 1513 1516 1518 1521 1524 1526 1529 1531 1533 1535 1537 1538
1467 1463 1458 1454 1452 1450 1450 1443 1439 1439 1440 1439 1439 1438 1438 1439 1440 1441 1443 1445 1448 1451 1454 1457 1460 1464 1467 1471 1476 1480 1484 1489 1493 1496 1500 1504 1508 1511 1514 1517 1519 1522 1525 1527 1530 1532 1534 1536 1537
1463 1458 1452 1446 1446 1446 1449 1436 1432 1435 1436 1434 1433 1432 1432 1433 1434 1435 1438 1440 1443 1446 1449 1452 1456 1459 1463 1467 1472 1477 1481 1485 1490 1494 1497 1501 1505 1509 1512 1515 1517 1520 1523 1525 1528 1530 1532 1534 1536
1457 1452 1446 1443 1442 1442 1442 1433 1429 1431 1431 1429 1427 1426 1426 1426 1427 1429 1432 1434 1437 1440 1443 1447 1450 1454 1458 1463 1468 1473 1477 1481 1486 1490 1494 1498 1502 1506 1509 1512 1515 1518 1521 1523 1526 1528 1531 1533 1535
1453 1450 1445 1441 1439 1438 1435 1428 1426 1425 1425 1423 1422 1420 1420 1420 1421 1423 1426 1429 1431 1435 1438 1441 1445 1449 1454 1458 1464 1468 1472 1476 1481 1486 1490 1494 1498 1502 1506 1509 1512 1515 1518 1521 1523 1526 1529 1531 1533
1455 1451 1445 1439 1437 1437 1430 1423 1418 1418 1418 1417 1415 1414 1414 1414 1416 1418 1420 1423 1426 1429 1432 1435 1439 1443 1448 1452 1457 1462 1466 1471 1476 1481 1486 1490 1495 1499 1502 1506 1509 1512 1515 1518 1521 1524 1526 1528 1530
1454 1450 1443 1436 1433 1432 1425 1418 1413 1411 1411 1411 1410 1409 1409 1409 1411 1412 1415 1417 1419 1422 1426 1429 1433 1437 1442 1447 1452 1457 1462 1466 1471 1476 1481 1486 1490 1494 1498 1502 1506 1509 1512 1515 1518 1520 1523 1525 1528
1450 1446 1441 1437 1432 1427 1424 1414 1406 1404 1405 1406 1406 1405 1405 1406 1406 1408 1410 1412 1414 1417 1420 1423 1427 1432 1436 1441 1447 1453 1458 1461 1466 1470 1475 1480 1485 1490 1494 1498 1502 1505 1508 1511 1514 1517 1520 1522 1525
1447 1442 1440 1437 1433 1426 1423 1415 1400 1399 1399 1400 1401 1401 1401 1402 1403 1404 1405 1407 1409 1412 1415 1419 1422 1426 1431 1436 1440 1445 1448 1452 1457 1463 1469 1475 1480 1485 1489 1494 1498 1501 1504 1508 1511 1514 1517 1519 1521
1447 1442 1439 1434 1431 1428 1418 1418 1399 1396 1396 1395 1396 1397 1398 1399 1399 1400 1401 1402 1405 1407 1410 1413 1417 1421 1425 1429 1434 1439 1443 1448 1454 1459 1464 1470 1475 1480 1484 1489 1493 1497 1500 1504 1507 1510 1513 1516 1518
1447 1442 1434 1430 1429 1427 1414 1412 1399 1395 1395 1393 1393 1394 1395 1396 1396 1396 1397 1399 1401 1403 1405 1409 1412 1416 1420 1424 1428 1433 1437 1443 1448 1452 1458 1463 1469 1474 1479 1483 1488 1492 1495 1499 1502 1506 1509 1512 1514
1447 1443 1435 1428 1423 1415 1409 1409 1401 1397 1396 1395 1394 1394 1393 1393 1393 1393 1393 1394 1395 1397 1400 1402 1406 1410 1414 1418 1422 1426 1431 1436 1441 1446 1451 1457 1462 1467 1471 1477 1482 1486 1490 1494 1498 1501 1504 1507 1510
1447 1446 1443 1435 1421 1411 1408 1404 1398 1397 1396 1395 1394 1393 1392 1392 1391 1390 1390 1390 1391 1392 1394 1397 1400 1403 1407 1411 1416 1420 1426 1430 1436 1441 1445 1450 1455 1461 1466 1471 1476 1481 1485 1489 1493 1496 1500 1503 1505
1447 1443 1442 1440 1428 1423 1405 1399 1398 1397 1395 1394 1393 1392 1391 1390 1389 1388 1387 1387 1388 1388 1390 1392 1395 1398 1401 1405 1409 1414 1419 1423 1429 1434 1440 1445 1450 1455 1460 1465 1470 1475 1480 1483 1487 1491 1494 1498 1501
1449 1446 1444 1440 1432 1418 1403 1397 1397 1397 1396 1395 1393 1392 1391 1390 1388 1386 1385 1385 1385 1385 1386 1388 1390 1392 1395 1399 1404 1408 1412 1417 1422 1427 1432 1438 1444 1449 1454 1459 1464 1469 1474 1478 1482 1485 1489 1492 1495
1449 1448 1445 1440 1435 1425 1410 1399 1398 1399 1398 1396 1395 1393 1391 1389 1387 1385 1384 1383 1382 1382 1382 1383 1386 1388 1391 1394 1398 1401 1406 1410 1415 1420 1426 1431 1437 1442 1447 1452 1458 1462 1467 1471 1476 1479 1483 1486 1490
1449 1447 1446 1445 1438 1430 1419 1405 1399 1399 1398 1397 1395 1393 1391 1388 1386 1384 1382 1380 1379 1378 1378 1379 1381 1383 1385 1388 1392 1395 1399 1404 1408 1413 1419 1425 1430 1436 1441 1446 1451 1456 1461 1465 1469 1473 1477 1480 1484